Change the Weather History Date:

Sunday, January 27, 2013

  Actual Average Record
Temperature  
Mean Temperature 17 °F -  
Max Temperature 26 °F 27 °F 53 °F (2002)
Min Temperature 8 °F 13 °F -2 °F (2003)
Degree Days  
Heating Degree Days 48    
Moisture  
Dew Point 5 °F    
Average Humidity 63    
Maximum Humidity 92    
Minimum Humidity 37    
Precipitation  
Precipitation 0.00 in - - ()
Sea Level Pressure  
Sea Level Pressure 30.37 in    
Wind  
Wind Speed 7 mph (WNW)    
Max Wind Speed 15 mph    
Max Gust Speed 21 mph    
Visibility 10 miles    
Events      
Averages and records for this station are not official NWS values.
T = Trace of Precipitation, MM = Missing Value Source: NWS Daily Summary

Daily Weather History Graph

Daily Weather History Graph

Search for Another Location

Airport or City:

Trip Planner

Search our weather history database for the weather conditions in past years. The results will help you decide how hot, cold, wet, or windy it might be!

Date:

Astronomy

Jan. 27, 2013 Rise Set
Actual Time 7:15 AM EST 5:08 PM EST
Civil Twilight 6:45 AM EST 5:38 PM EST
Nautical Twilight 6:12 AM EST 6:12 PM EST
Astronomical Twilight 5:39 AM EST 6:44 PM EST
Moon 6:01 PM EST (1/27) 7:06 AM EST (1/27)
Length of Visible Light 10h 52m
Length of Day
9h 52m
Full, 100% of the Moon is Illuminated
Jan 27
Full
Feb 3
Last Quarter
Feb 10
New
Feb 17
First Quarter
Feb 25
Full

Hourly Weather History & Observations

Time (EST) Temp. Windchill Dew Point Humidity Pressure Visibility Wind Dir Wind Speed Gust Speed Precip Events Conditions
12:15 AM 10.4 °F -0.4 °F 3.2 °F 73% 30.27 in 10.0 mi WNW 6.9 mph - N/A   Clear
12:35 AM 8.6 °F -1.3 °F 3.2 °F 79% 30.27 in 10.0 mi West 5.8 mph - N/A   Clear
12:55 AM 8.6 °F -2.6 °F 1.4 °F 73% 30.27 in 10.0 mi West 6.9 mph - N/A   Clear
1:15 AM 8.6 °F -4.7 °F 1.4 °F 73% 30.27 in 10.0 mi West 9.2 mph - N/A   Clear
1:35 AM 8.6 °F -3.7 °F 3.2 °F 79% 30.27 in 10.0 mi West 8.1 mph - N/A   Clear
1:55 AM 8.6 °F -3.7 °F 3.2 °F 79% 30.29 in 10.0 mi West 8.1 mph - N/A   Clear
2:15 AM 8.6 °F 0.1 °F 3.2 °F 79% 30.30 in 10.0 mi West 4.6 mph - N/A   Clear
2:35 AM 8.6 °F -2.6 °F 5.0 °F 85% 30.30 in 10.0 mi West 6.9 mph - N/A   Mostly Cloudy
2:55 AM 10.4 °F 0.8 °F 5.0 °F 79% 30.30 in 10.0 mi West 5.8 mph - N/A   Overcast
3:15 AM 10.4 °F -1.5 °F 6.8 °F 85% 30.30 in 9.0 mi WNW 8.1 mph - N/A   Mostly Cloudy
3:35 AM 10.4 °F -0.4 °F 6.8 °F 85% 30.30 in 10.0 mi WNW 6.9 mph - N/A   Mostly Cloudy
3:55 AM 10.4 °F -2.4 °F 6.8 °F 85% 30.30 in 7.0 mi West 9.2 mph - N/A   Overcast
4:15 AM 10.4 °F -2.4 °F 6.8 °F 85% 30.31 in 10.0 mi West 9.2 mph - N/A   Overcast
4:35 AM 12.2 °F -1.0 °F 8.6 °F 85% 30.31 in 10.0 mi West 10.4 mph - N/A   Overcast
4:55 AM 12.2 °F 1.7 °F 6.8 °F 79% 30.31 in 10.0 mi West 6.9 mph - N/A   Overcast
5:15 AM 10.4 °F 2.2 °F 6.8 °F 85% 30.32 in 10.0 mi West 4.6 mph - N/A   Overcast
5:35 AM 10.4 °F -1.5 °F 5.0 °F 79% 30.33 in 10.0 mi West 8.1 mph - N/A   Mostly Cloudy
5:55 AM 10.4 °F -2.4 °F 6.8 °F 85% 30.33 in 10.0 mi West 9.2 mph - N/A   Mostly Cloudy
6:15 AM 10.4 °F 0.8 °F 5.0 °F 79% 30.34 in 10.0 mi West 5.8 mph - N/A   Partly Cloudy
6:35 AM 8.6 °F - 6.8 °F 92% 30.34 in 10.0 mi Calm Calm - N/A   Mostly Cloudy
6:55 AM 8.6 °F -2.6 °F 5.0 °F 85% 30.34 in 10.0 mi WSW 6.9 mph - N/A   Partly Cloudy
7:15 AM 8.6 °F -2.6 °F 5.0 °F 85% 30.35 in 10.0 mi West 6.9 mph - N/A   Clear
7:35 AM 8.6 °F -1.3 °F 6.8 °F 92% 30.37 in 10.0 mi West 5.8 mph - N/A   Clear
7:55 AM 8.6 °F 0.1 °F 5.0 °F 85% 30.38 in 10.0 mi WSW 4.6 mph - N/A   Clear
8:15 AM 10.4 °F 4.0 °F 6.8 °F 85% 30.38 in 10.0 mi WSW 3.5 mph - N/A   Clear
8:35 AM 12.2 °F - 6.8 °F 79% 30.38 in 10.0 mi Calm Calm - N/A   Clear
8:55 AM 14.0 °F 6.5 °F 8.6 °F 79% 30.39 in 10.0 mi West 4.6 mph - N/A   Clear
9:15 AM 15.8 °F 6.1 °F 8.6 °F 73% 30.40 in 10.0 mi WNW 6.9 mph - N/A   Clear
9:35 AM 17.6 °F 7.3 °F 10.4 °F 73% 30.41 in 10.0 mi WNW 8.1 mph - N/A   Clear
9:55 AM 19.4 °F 7.2 °F 8.6 °F 63% 30.42 in 10.0 mi WNW 11.5 mph 16.1 mph N/A   Clear
10:15 AM 19.4 °F 8.6 °F 10.4 °F 68% 30.42 in 10.0 mi WNW 9.2 mph - N/A   Clear
10:35 AM 21.2 °F 11.7 °F 8.6 °F 58% 30.43 in 10.0 mi WNW 8.1 mph - N/A   Clear
10:55 AM 21.2 °F 8.3 °F 6.8 °F 54% 30.43 in 10.0 mi NW 13.8 mph - N/A   Clear
11:15 AM 23.0 °F 10.1 °F 6.8 °F 50% 30.43 in 10.0 mi WNW 15.0 mph 18.4 mph N/A   Clear
11:35 AM 23.0 °F 12.4 °F 6.8 °F 50% 30.43 in 10.0 mi WNW 10.4 mph - N/A   Clear
11:55 AM 24.8 °F 14.0 °F 6.8 °F 46% 30.42 in 10.0 mi NW 11.5 mph 16.1 mph N/A   Clear
12:15 PM 24.8 °F 16.1 °F 6.8 °F 46% 30.41 in 10.0 mi NNW 8.1 mph - N/A   Clear
12:35 PM 24.8 °F 14.6 °F 5.0 °F 43% 30.41 in 10.0 mi NNW 10.4 mph - N/A   Clear
1:15 PM 24.8 °F 16.1 °F 5.0 °F 43% 30.39 in 10.0 mi NNW 8.1 mph - N/A   Clear
1:35 PM 26.6 °F 17.5 °F 3.2 °F 37% 30.40 in 10.0 mi West 9.2 mph - N/A   Clear
1:55 PM 26.6 °F 16.2 °F 5.0 °F 40% 30.39 in 10.0 mi WNW 11.5 mph - N/A   Clear
2:15 PM 26.6 °F 16.8 °F 3.2 °F 37% 30.39 in 10.0 mi NW 10.4 mph - N/A   Clear
2:35 PM 26.6 °F 15.7 °F 3.2 °F 37% 30.39 in 10.0 mi WNW 12.7 mph 20.7 mph N/A   Clear
2:55 PM 26.6 °F 17.5 °F 3.2 °F 37% 30.39 in 10.0 mi West 9.2 mph - N/A   Clear
3:15 PM 26.6 °F 19.1 °F 3.2 °F 37% 30.38 in 10.0 mi WNW 6.9 mph - N/A   Clear
3:35 PM 26.6 °F 18.2 °F 3.2 °F 37% 30.40 in 10.0 mi West 8.1 mph - N/A   Clear
3:55 PM 26.6 °F 17.5 °F 3.2 °F 37% 30.41 in 10.0 mi WNW 9.2 mph - N/A   Clear
4:15 PM 26.6 °F 17.5 °F 5.0 °F 40% 30.41 in 10.0 mi West 9.2 mph - N/A   Clear
4:35 PM 24.8 °F 16.9 °F 5.0 °F 43% 30.41 in 10.0 mi West 6.9 mph - N/A   Clear
4:55 PM 24.8 °F 16.1 °F 5.0 °F 43% 30.41 in 10.0 mi West 8.1 mph - N/A   Clear
5:15 PM 24.8 °F 16.9 °F 3.2 °F 40% 30.41 in 10.0 mi WNW 6.9 mph - N/A   Clear
5:35 PM 23.0 °F 15.8 °F 5.0 °F 46% 30.42 in 10.0 mi WNW 5.8 mph - N/A   Clear
5:55 PM 23.0 °F 15.8 °F 5.0 °F 46% 30.42 in 10.0 mi WNW 5.8 mph - N/A   Clear
6:15 PM 21.2 °F 12.6 °F 5.0 °F 50% 30.42 in 10.0 mi West 6.9 mph - N/A   Clear
6:35 PM 21.2 °F 13.6 °F 6.8 °F 54% 30.43 in 10.0 mi West 5.8 mph - N/A   Clear
6:55 PM 21.2 °F 16.4 °F 5.0 °F 50% 30.42 in 10.0 mi West 3.5 mph - N/A   Clear
7:15 PM 21.2 °F 16.4 °F 5.0 °F 50% 30.41 in 10.0 mi West 3.5 mph - N/A   Clear
7:35 PM 21.2 °F 16.4 °F 5.0 °F 50% 30.41 in 10.0 mi West 3.5 mph - N/A   Clear
7:55 PM 19.4 °F 12.8 °F 5.0 °F 54% 30.42 in 10.0 mi West 4.6 mph - N/A   Clear
8:15 PM 19.4 °F 14.3 °F 6.8 °F 58% 30.41 in 10.0 mi West 3.5 mph - N/A   Clear
8:35 PM 19.4 °F - 5.0 °F 54% 30.40 in 10.0 mi Calm Calm - N/A   Clear
8:55 PM 17.6 °F 10.7 °F 5.0 °F 58% 30.42 in 10.0 mi West 4.6 mph - N/A   Clear
9:15 PM 17.6 °F 10.7 °F 6.8 °F 63% 30.42 in 10.0 mi West 4.6 mph - N/A   Clear
9:35 PM 19.4 °F - 5.0 °F 54% 30.41 in 10.0 mi Calm Calm - N/A   Clear
9:55 PM 17.6 °F - 6.8 °F 63% 30.40 in 10.0 mi Calm Calm - N/A   Clear
10:15 PM 17.6 °F - 3.2 °F 53% 30.40 in 10.0 mi Calm Calm - N/A   Clear
10:35 PM 15.8 °F - 5.0 °F 62% 30.39 in 10.0 mi Calm Calm - N/A   Clear
10:55 PM 15.8 °F - 5.0 °F 62% 30.39 in 10.0 mi Calm Calm - N/A   Clear
11:15 PM 12.2 °F - 3.2 °F 67% 30.39 in 10.0 mi Calm Calm - N/A   Clear
11:35 PM 12.2 °F 4.3 °F 6.8 °F 79% 30.40 in 10.0 mi NNW 4.6 mph - N/A   Clear
11:55 PM 12.2 °F - 6.8 °F 79% 30.40 in 10.0 mi Calm Calm - N/A   Clear